DAL528 KLAX-KATL

Flight info

Callsign DAL528
Flight time N/A
Altitude FL370
Route DOTSS2 CLEEE PKE HIDAT KA27O KA30Q KA33U FTI KK36A KK36C OKM MEMFS HUTCC KNSAW RUSSA GLAVN2
Aircraft B752/H-SABDE1E2FGIJ1J3J4J5J6J7M2M3P1P2RTUVW/NACEHB1B2U1V1V2D1G1

Departure

Time 2026-05-07 23:30
Airport Los Angeles International Airport (KLAX)

Arrival

Time N/A
Airport Hartsfield Jackson Atlanta International Airport (KATL)
Time Latitude Longitude Altitude Speed Heading
2026-05-07 23:10 33.94666 -118.40851 137 ft 0 kts 113°
2026-05-07 23:20 33.94670 -118.40862 137 ft 0 kts 113°
2026-05-07 23:20 33.94675 -118.40877 137 ft 0 kts 113°
2026-05-07 23:21 33.94680 -118.40892 137 ft 0 kts 101°
2026-05-07 23:21 33.94677 -118.40908 137 ft 0 kts 57°
2026-05-07 23:21 33.94667 -118.40917 137 ft 0 kts 15°
2026-05-07 23:21 33.94656 -118.40917 137 ft 0 kts 353°
2026-05-07 23:23 33.94683 -118.40921 137 ft 7 kts 353°
2026-05-07 23:23 33.94740 -118.40901 137 ft 11 kts 56°
2026-05-07 23:24 33.94761 -118.40802 137 ft 15 kts 82°
2026-05-07 23:24 33.94772 -118.40696 137 ft 12 kts 83°
2026-05-07 23:24 33.94799 -118.40621 137 ft 11 kts 37°
2026-05-07 23:24 33.94857 -118.40579 137 ft 10 kts 66°
2026-05-07 23:25 33.94876 -118.40474 137 ft 15 kts 82°
2026-05-07 23:25 33.94889 -118.40352 137 ft 15 kts 83°
2026-05-07 23:25 33.94903 -118.40225 137 ft 13 kts 66°
2026-05-07 23:25 33.94915 -118.40207 137 ft 0 kts 42°
2026-05-07 23:26 33.94927 -118.40196 137 ft 5 kts 24°
2026-05-07 23:26 33.94979 -118.40192 137 ft 10 kts 345°
2026-05-07 23:26 33.95010 -118.40233 137 ft 1 kts 262°
2026-05-07 23:27 33.95010 -118.40234 137 ft 0 kts 261°
2026-05-07 23:28 33.95010 -118.40235 137 ft 0 kts 261°
2026-05-07 23:29 33.95009 -118.40246 137 ft 8 kts 262°
2026-05-07 23:29 33.94974 -118.40588 137 ft 83 kts 263°
2026-05-07 23:29 33.94872 -118.41602 138 ft 157 kts 263°
2026-05-07 23:30 33.94725 -118.43073 455 ft 192 kts 263°
2026-05-07 23:30 33.94565 -118.44742 1006 ft 206 kts 263°
2026-05-07 23:30 33.94383 -118.46512 1564 ft 220 kts 265°
2026-05-07 23:30 33.94311 -118.48411 2133 ft 235 kts 268°
2026-05-07 23:31 33.94248 -118.50415 2687 ft 243 kts 267°
2026-05-07 23:31 33.94109 -118.52458 3244 ft 246 kts 264°
2026-05-07 23:31 33.93948 -118.54514 3796 ft 248 kts 264°
2026-05-07 23:31 33.93665 -118.56555 4319 ft 250 kts 251°
2026-05-07 23:32 33.92702 -118.58286 4872 ft 252 kts 222°
2026-05-07 23:32 33.91202 -118.59321 5449 ft 253 kts 202°
2026-05-07 23:32 33.89561 -118.60154 6007 ft 256 kts 204°
2026-05-07 23:32 33.87934 -118.61026 6558 ft 258 kts 204°
2026-05-07 23:33 33.86287 -118.61908 7116 ft 260 kts 204°
2026-05-07 23:33 33.84589 -118.62634 7637 ft 265 kts 189°
2026-05-07 23:33 33.82729 -118.62469 8200 ft 273 kts 163°
2026-05-07 23:33 33.81052 -118.61375 8783 ft 278 kts 145°
2026-05-07 23:34 33.79448 -118.60041 9337 ft 282 kts 146°
2026-05-07 23:34 33.77817 -118.58740 9886 ft 284 kts 147°
2026-05-07 23:34 33.76138 -118.57451 10445 ft 286 kts 148°
2026-05-07 23:34 33.74419 -118.56174 11006 ft 298 kts 148°
2026-05-07 23:35 33.72607 -118.54869 11563 ft 309 kts 149°
2026-05-07 23:35 33.70741 -118.53543 12112 ft 313 kts 147°
2026-05-07 23:35 33.69136 -118.51787 12627 ft 318 kts 127°
2026-05-07 23:35 33.68166 -118.49365 13287 ft 328 kts 108°
2026-05-07 23:36 33.67523 -118.46711 14151 ft 333 kts 106°
2026-05-07 23:36 33.66875 -118.44023 15002 ft 338 kts 106°
2026-05-07 23:36 33.66188 -118.41309 15824 ft 342 kts 107°
2026-05-07 23:36 33.65467 -118.38574 16612 ft 347 kts 108°
2026-05-07 23:37 33.64716 -118.35807 17374 ft 351 kts 108°
2026-05-07 23:37 33.64264 -118.32914 18090 ft 355 kts 93°
2026-05-07 23:37 33.64240 -118.29937 18816 ft 359 kts 89°
2026-05-07 23:37 33.64288 -118.26934 19491 ft 363 kts 89°
2026-05-07 23:38 33.64336 -118.23887 20144 ft 367 kts 89°
2026-05-07 23:38 33.64374 -118.20814 20779 ft 371 kts 89°
2026-05-07 23:38 33.64402 -118.17714 21397 ft 375 kts 89°
2026-05-07 23:38 33.64422 -118.14573 22001 ft 378 kts 89°
2026-05-07 23:39 33.64435 -118.11402 22591 ft 382 kts 90°
2026-05-07 23:39 33.64443 -118.08214 23162 ft 385 kts 90°
2026-05-07 23:39 33.64448 -118.04970 23723 ft 389 kts 90°
2026-05-07 23:39 33.64449 -118.01722 24270 ft 392 kts 90°
2026-05-07 23:40 33.64448 -117.98436 24802 ft 395 kts 90°
2026-05-07 23:40 33.64445 -117.95132 25317 ft 399 kts 90°
2026-05-07 23:40 33.64440 -117.91786 25827 ft 402 kts 90°
2026-05-07 23:40 33.64434 -117.88431 26316 ft 405 kts 90°
2026-05-07 23:41 33.64427 -117.85039 26801 ft 408 kts 90°
2026-05-07 23:41 33.64418 -117.81619 27273 ft 411 kts 90°
2026-05-07 23:41 33.64622 -117.78187 27720 ft 415 kts 81°
2026-05-07 23:41 33.65200 -117.74793 28180 ft 417 kts 77°
2026-05-07 23:42 33.65872 -117.71394 28619 ft 420 kts 76°
2026-05-07 23:42 33.66561 -117.67981 29045 ft 423 kts 76°
2026-05-07 23:42 33.67251 -117.64536 29467 ft 426 kts 76°
2026-05-07 23:42 33.67936 -117.61071 29878 ft 429 kts 77°
2026-05-07 23:43 33.68621 -117.57569 30299 ft 432 kts 77°
2026-05-07 23:43 33.69301 -117.54058 30719 ft 434 kts 77°
2026-05-07 23:43 33.69982 -117.50526 31110 ft 436 kts 77°
2026-05-07 23:43 33.70664 -117.46971 31493 ft 439 kts 77°
2026-05-07 23:44 33.71350 -117.43380 31870 ft 442 kts 77°
2026-05-07 23:44 33.72035 -117.39786 32234 ft 444 kts 77°
2026-05-07 23:44 33.72723 -117.36165 32595 ft 447 kts 77°
2026-05-07 23:44 33.73415 -117.32510 32952 ft 449 kts 77°
2026-05-07 23:45 33.74108 -117.28847 33338 ft 451 kts 76°
2026-05-07 23:45 33.74795 -117.25176 33870 ft 449 kts 75°
2026-05-07 23:45 33.75138 -117.21476 34518 ft 447 kts 85°
2026-05-07 23:45 33.75152 -117.17746 34938 ft 445 kts 88°
2026-05-07 23:46 33.74963 -117.10162 35005 ft 464 kts 89°
2026-05-07 23:46 33.74751 -117.02337 35004 ft 472 kts 89°
2026-05-07 23:47 33.74557 -116.94452 34989 ft 472 kts 89°
2026-05-07 23:47 33.74465 -116.90528 34794 ft 466 kts 89°
2026-05-07 23:47 33.74376 -116.86664 34900 ft 466 kts 92°
2026-05-07 23:48 33.74288 -116.82749 35159 ft 470 kts 91°
2026-05-07 23:48 33.74195 -116.78822 35413 ft 472 kts 89°
2026-05-07 23:48 33.74102 -116.74872 35667 ft 474 kts 89°
2026-05-07 23:48 33.74010 -116.70921 35920 ft 476 kts 89°
2026-05-07 23:49 33.73915 -116.66934 36173 ft 477 kts 89°
2026-05-07 23:49 33.73819 -116.62954 36424 ft 478 kts 89°
2026-05-07 23:49 33.73722 -116.58970 36673 ft 480 kts 89°
2026-05-07 23:49 33.73623 -116.54952 36922 ft 483 kts 89°
2026-05-07 23:50 33.73418 -116.46850 36998 ft 482 kts 89°
2026-05-07 23:50 33.73210 -116.38961 37002 ft 470 kts 89°
2026-05-07 23:51 33.73001 -116.31080 37003 ft 472 kts 89°
2026-05-07 23:51 33.72787 -116.23249 37002 ft 469 kts 89°
2026-05-07 23:52 33.72570 -116.15428 37000 ft 467 kts 89°
2026-05-07 23:52 33.72493 -116.07650 36988 ft 466 kts 80°
2026-05-07 23:53 33.74142 -116.00212 37001 ft 460 kts 68°
2026-05-07 23:53 33.76239 -115.92969 37002 ft 458 kts 68°
2026-05-07 23:54 33.78323 -115.85693 36997 ft 466 kts 71°
2026-05-07 23:54 33.80378 -115.78344 37002 ft 462 kts 69°
2026-05-07 23:55 33.84513 -115.63373 37009 ft 472 kts 69°
2026-05-07 23:56 33.85527 -115.59668 36997 ft 460 kts 69°
2026-05-07 23:56 33.86523 -115.56028 37002 ft 457 kts 69°
2026-05-07 23:56 33.88532 -115.48702 37004 ft 469 kts 71°
2026-05-07 23:57 33.90581 -115.41198 36998 ft 475 kts 72°
2026-05-07 23:57 33.92620 -115.33688 36998 ft 462 kts 69°
2026-05-07 23:58 33.94595 -115.26402 37000 ft 456 kts 69°
2026-05-07 23:58 33.96558 -115.19157 36999 ft 453 kts 69°
2026-05-07 23:59 33.98534 -115.11854 37004 ft 468 kts 71°
2026-05-07 23:59 34.00562 -115.04322 37002 ft 475 kts 72°
2026-05-08 00:00 34.02561 -114.96854 36998 ft 458 kts 69°
2026-05-08 00:00 34.04506 -114.89592 36997 ft 459 kts 72°
2026-05-08 00:01 34.06502 -114.82127 37003 ft 476 kts 72°
2026-05-08 00:01 34.08535 -114.74495 37003 ft 480 kts 72°
2026-05-08 00:02 34.10582 -114.66820 37003 ft 480 kts 71°
2026-05-08 00:02 34.12705 -114.59230 36998 ft 478 kts 71°
2026-05-08 00:03 34.14850 -114.51615 37000 ft 481 kts 71°
2026-05-08 00:03 34.16993 -114.43966 37002 ft 481 kts 71°
2026-05-08 00:04 34.19118 -114.36344 37001 ft 479 kts 71°
2026-05-08 00:04 34.21245 -114.28691 37002 ft 481 kts 71°
2026-05-08 00:05 34.23366 -114.21034 36999 ft 481 kts 71°
2026-05-08 00:05 34.25482 -114.13373 36999 ft 480 kts 71°
2026-05-08 00:06 34.27592 -114.05716 36998 ft 481 kts 71°
2026-05-08 00:06 34.29696 -113.98056 36997 ft 479 kts 71°
2026-05-08 00:07 34.31780 -113.90448 36997 ft 476 kts 71°
2026-05-08 00:07 34.33858 -113.82845 36997 ft 477 kts 71°
2026-05-08 00:08 34.35582 -113.76516 37006 ft 473 kts 70°
2026-05-08 00:08 34.35924 -113.75259 37003 ft 470 kts 70°
2026-05-08 00:09 34.39955 -113.60401 37036 ft 462 kts 69°
2026-05-08 00:09 34.41952 -113.53016 37047 ft 462 kts 69°
2026-05-08 00:10 34.43951 -113.45603 37044 ft 462 kts 69°
2026-05-08 00:10 34.45940 -113.38204 37044 ft 462 kts 69°
2026-05-08 00:11 34.47926 -113.30798 37058 ft 463 kts 69°
2026-05-08 00:11 34.49910 -113.23377 37068 ft 463 kts 69°
2026-05-08 00:12 34.51888 -113.15957 37068 ft 463 kts 70°
2026-05-08 00:12 34.53862 -113.08531 37068 ft 463 kts 70°
2026-05-08 00:13 34.55834 -113.01091 37068 ft 463 kts 70°
2026-05-08 00:13 34.56537 -112.94670 37056 ft 467 kts 88°
2026-05-08 00:14 34.56083 -112.86762 37032 ft 472 kts 92°
2026-05-08 00:14 34.55493 -112.78846 37043 ft 472 kts 91°
2026-05-08 00:15 34.54929 -112.70906 37004 ft 473 kts 91°
2026-05-08 00:15 34.54385 -112.62952 36985 ft 475 kts 91°
2026-05-08 00:16 34.53843 -112.54966 37024 ft 475 kts 91°
2026-05-08 00:16 34.53301 -112.46995 36942 ft 475 kts 91°
2026-05-08 00:17 34.52754 -112.39036 36875 ft 474 kts 91°
2026-05-08 00:17 34.52203 -112.31072 36865 ft 474 kts 91°
2026-05-08 00:18 34.51647 -112.23111 36846 ft 474 kts 92°
2026-05-08 00:18 34.51085 -112.15155 36843 ft 473 kts 92°
2026-05-08 00:19 34.50520 -112.07213 36838 ft 474 kts 92°
2026-05-08 00:19 34.50293 -111.99255 36837 ft 473 kts 79°
2026-05-08 00:20 34.51968 -111.91627 36845 ft 467 kts 70°
2026-05-08 00:20 34.53998 -111.84173 36844 ft 466 kts 70°
2026-05-08 00:21 34.55988 -111.76720 36853 ft 465 kts 70°
2026-05-08 00:21 34.57937 -111.69241 36852 ft 468 kts 70°
2026-05-08 00:22 34.59889 -111.61665 36853 ft 471 kts 70°
2026-05-08 00:22 34.61834 -111.54067 36885 ft 471 kts 70°
2026-05-08 00:23 34.63767 -111.46485 36876 ft 471 kts 70°
2026-05-08 00:23 34.65702 -111.38873 36857 ft 472 kts 70°
2026-05-08 00:24 34.67625 -111.31282 36868 ft 471 kts 70°
2026-05-08 00:24 34.69551 -111.23661 36896 ft 472 kts 70°
2026-05-08 00:25 34.71465 -111.16063 36893 ft 471 kts 71°
2026-05-08 00:25 34.73382 -111.08432 36919 ft 472 kts 71°
2026-05-08 00:26 34.75291 -111.00807 36953 ft 472 kts 71°
2026-05-08 00:26 34.77183 -110.93221 36956 ft 466 kts 71°
2026-05-08 00:27 34.79058 -110.85694 36964 ft 466 kts 71°
2026-05-08 00:27 34.80923 -110.78183 36994 ft 466 kts 71°
2026-05-08 00:28 34.82805 -110.70583 36971 ft 468 kts 71°
2026-05-08 00:28 34.84681 -110.62978 36971 ft 470 kts 71°
2026-05-08 00:29 34.86555 -110.55363 37002 ft 470 kts 71°
2026-05-08 00:29 34.88426 -110.47739 37003 ft 467 kts 73°
2026-05-08 00:30 34.90266 -110.40214 37017 ft 468 kts 71°
2026-05-08 00:30 34.92126 -110.32583 37051 ft 470 kts 71°
2026-05-08 00:31 34.93982 -110.24949 37052 ft 470 kts 71°
2026-05-08 00:31 34.95842 -110.17278 37052 ft 475 kts 71°
2026-05-08 00:32 34.97705 -110.09566 37048 ft 475 kts 71°
2026-05-08 00:32 34.99562 -110.01855 37051 ft 475 kts 71°
2026-05-08 00:33 35.00977 -109.93973 37052 ft 477 kts 78°
2026-05-08 00:33 35.02058 -109.85981 37027 ft 477 kts 78°
2026-05-08 00:34 35.03136 -109.78026 37025 ft 477 kts 78°
2026-05-08 00:34 35.04235 -109.70057 37027 ft 478 kts 78°
2026-05-08 00:35 35.05344 -109.62057 36992 ft 478 kts 78°
2026-05-08 00:35 35.06449 -109.54078 37001 ft 477 kts 78°
2026-05-08 00:36 35.07550 -109.46091 36927 ft 476 kts 78°
2026-05-08 00:36 35.08097 -109.42113 36786 ft 476 kts 78°
2026-05-08 00:36 35.08640 -109.38146 36750 ft 476 kts 78°
2026-05-08 00:37 35.09731 -109.30162 36732 ft 477 kts 78°
2026-05-08 00:38 35.11364 -109.18135 36693 ft 480 kts 79°
2026-05-08 00:38 35.12448 -109.10093 36685 ft 481 kts 79°
2026-05-08 00:39 35.13527 -109.02046 36697 ft 480 kts 79°
2026-05-08 00:39 35.14597 -108.94020 36677 ft 479 kts 79°
2026-05-08 00:40 35.15665 -108.85979 36675 ft 480 kts 79°
2026-05-08 00:40 35.16728 -108.77928 36705 ft 481 kts 79°
2026-05-08 00:41 35.17787 -108.69863 36690 ft 482 kts 80°
2026-05-08 00:41 35.18850 -108.61734 36693 ft 487 kts 80°
2026-05-08 00:42 35.19912 -108.53564 36707 ft 487 kts 80°
2026-05-08 00:42 35.20969 -108.45380 36700 ft 487 kts 80°
2026-05-08 00:43 35.22018 -108.37217 36714 ft 487 kts 80°
2026-05-08 00:43 35.23064 -108.29034 36738 ft 487 kts 80°
2026-05-08 00:44 35.24103 -108.20858 36737 ft 487 kts 80°
2026-05-08 00:44 35.25141 -108.12651 36767 ft 491 kts 80°
2026-05-08 00:45 35.26182 -108.04372 36760 ft 495 kts 80°
2026-05-08 00:45 35.27220 -107.96068 36707 ft 494 kts 80°
2026-05-08 00:46 35.28246 -107.87803 36734 ft 489 kts 80°
2026-05-08 00:46 35.29260 -107.79598 36736 ft 488 kts 80°
2026-05-08 00:47 35.30271 -107.71372 36725 ft 488 kts 80°
2026-05-08 00:47 35.31278 -107.63131 36746 ft 492 kts 80°
2026-05-08 00:48 35.32286 -107.54836 36752 ft 493 kts 81°
2026-05-08 00:48 35.33286 -107.46545 36777 ft 492 kts 80°
2026-05-08 00:49 35.34282 -107.38251 36737 ft 494 kts 81°
2026-05-08 00:49 35.35272 -107.29953 36776 ft 492 kts 81°
2026-05-08 00:50 35.36258 -107.21640 36782 ft 493 kts 81°
2026-05-08 00:50 35.37237 -107.13328 36748 ft 494 kts 81°
2026-05-08 00:51 35.38210 -107.05027 36826 ft 493 kts 81°
2026-05-08 00:51 35.39177 -106.96722 36847 ft 493 kts 81°
2026-05-08 00:52 35.40140 -106.88402 36836 ft 494 kts 81°
2026-05-08 00:52 35.41097 -106.80083 36883 ft 493 kts 81°
2026-05-08 00:53 35.42047 -106.71768 36881 ft 494 kts 81°
2026-05-08 00:53 35.42994 -106.63438 36910 ft 493 kts 81°
2026-05-08 00:54 35.43931 -106.55138 36969 ft 493 kts 81°
2026-05-08 00:54 35.44865 -106.46810 36958 ft 493 kts 81°
2026-05-08 00:55 35.45792 -106.38494 36958 ft 493 kts 81°
2026-05-08 00:55 35.46713 -106.30178 36961 ft 494 kts 81°
2026-05-08 00:56 35.47632 -106.21830 36942 ft 493 kts 81°
2026-05-08 00:56 35.48545 -106.13478 36949 ft 494 kts 81°
2026-05-08 00:57 35.49450 -106.05143 36947 ft 494 kts 81°
2026-05-08 00:57 35.50505 -105.96836 36926 ft 493 kts 77°
2026-05-08 00:58 35.52033 -105.88630 36913 ft 493 kts 76°
2026-05-08 00:58 35.53600 -105.80431 36915 ft 493 kts 76°
2026-05-08 00:59 35.55131 -105.72246 36913 ft 493 kts 76°
2026-05-08 00:59 35.56640 -105.64052 36905 ft 493 kts 76°
2026-05-08 01:00 35.58148 -105.55802 36912 ft 498 kts 76°
2026-05-08 01:00 35.59649 -105.47542 36911 ft 494 kts 76°
2026-05-08 01:01 35.61136 -105.39330 36893 ft 493 kts 76°
2026-05-08 01:01 35.62618 -105.31113 36900 ft 493 kts 76°
2026-05-08 01:02 35.64092 -105.22903 36898 ft 493 kts 76°
2026-05-08 01:02 35.65561 -105.14674 36901 ft 493 kts 77°
2026-05-08 01:03 35.66519 -105.06332 36906 ft 494 kts 83°
2026-05-08 01:03 35.67193 -104.97950 36919 ft 494 kts 83°
2026-05-08 01:04 35.67878 -104.89543 36933 ft 494 kts 83°
2026-05-08 01:04 35.68584 -104.81139 36913 ft 494 kts 83°
2026-05-08 01:05 35.69294 -104.72746 36931 ft 494 kts 83°
2026-05-08 01:05 35.70003 -104.64346 36937 ft 494 kts 83°
2026-05-08 01:06 35.70706 -104.55964 36933 ft 494 kts 83°
2026-05-08 01:06 35.71404 -104.47562 36948 ft 493 kts 83°
2026-05-08 01:07 35.72095 -104.39160 36946 ft 493 kts 82°
2026-05-08 01:07 35.72780 -104.30773 36944 ft 493 kts 82°
2026-05-08 01:08 35.73459 -104.22393 36954 ft 493 kts 83°
2026-05-08 01:08 35.74020 -104.15404 36954 ft 493 kts 83°
2026-05-08 01:09 35.74689 -104.07014 36954 ft 493 kts 83°
2026-05-08 01:09 35.75351 -103.98620 36954 ft 493 kts 83°
2026-05-08 01:10 35.76013 -103.90174 36953 ft 504 kts 82°
2026-05-08 01:10 35.76691 -103.81466 36954 ft 517 kts 84°
2026-05-08 01:11 35.77368 -103.72633 36948 ft 519 kts 84°
2026-05-08 01:11 35.78041 -103.63768 36954 ft 522 kts 85°
2026-05-08 01:12 35.78710 -103.54870 36946 ft 522 kts 85°
2026-05-08 01:12 35.79372 -103.45982 36947 ft 523 kts 85°
2026-05-08 01:13 35.80030 -103.37058 36951 ft 522 kts 85°
2026-05-08 01:13 35.80681 -103.28148 36943 ft 522 kts 85°
2026-05-08 01:14 35.81325 -103.19236 36956 ft 525 kts 85°
2026-05-08 01:14 35.81967 -103.10267 36962 ft 528 kts 85°
2026-05-08 01:15 35.82602 -103.01314 36954 ft 519 kts 85°
2026-05-08 01:15 35.83227 -102.92373 36967 ft 525 kts 85°
2026-05-08 01:16 35.83848 -102.83391 36967 ft 528 kts 85°
2026-05-08 01:16 35.84466 -102.74371 36964 ft 528 kts 85°
2026-05-08 01:17 35.85080 -102.65317 36967 ft 534 kts 86°
2026-05-08 01:17 35.85690 -102.56205 36960 ft 535 kts 86°
2026-05-08 01:18 35.86296 -102.47061 36957 ft 534 kts 86°
2026-05-08 01:18 35.86893 -102.37942 36957 ft 534 kts 86°
2026-05-08 01:19 35.87484 -102.28811 36960 ft 536 kts 86°
2026-05-08 01:19 35.88069 -102.19664 36961 ft 538 kts 86°
2026-05-08 01:20 35.88651 -102.10436 36955 ft 541 kts 86°
2026-05-08 01:20 35.89227 -102.01197 36949 ft 541 kts 86°
2026-05-08 01:21 35.89798 -101.91925 36962 ft 542 kts 85°
2026-05-08 01:21 35.90360 -101.82684 36965 ft 542 kts 86°
2026-05-08 01:22 35.90917 -101.73427 36966 ft 541 kts 87°
2026-05-08 01:22 35.91468 -101.64134 36960 ft 547 kts 87°
2026-05-08 01:23 35.92015 -101.54780 36966 ft 548 kts 87°
2026-05-08 01:23 35.92554 -101.45433 36955 ft 547 kts 87°
2026-05-08 01:24 35.93080 -101.36123 36940 ft 534 kts 86°
2026-05-08 01:24 35.93601 -101.26891 36960 ft 546 kts 87°
2026-05-08 01:25 35.94121 -101.17506 36954 ft 552 kts 88°
2026-05-08 01:25 35.94637 -101.08068 36960 ft 553 kts 88°
2026-05-08 01:26 35.95146 -100.98609 36968 ft 554 kts 88°
2026-05-08 01:26 35.95648 -100.89135 36970 ft 553 kts 87°
2026-05-08 01:26 35.95892 -100.84464 36965 ft 540 kts 88°
2026-05-08 01:27 35.96135 -100.79810 36979 ft 548 kts 88°
2026-05-08 01:27 35.96619 -100.70382 36985 ft 552 kts 88°
2026-05-08 01:28 35.97101 -100.60882 36984 ft 556 kts 88°
2026-05-08 01:28 35.97576 -100.51360 36987 ft 557 kts 88°
2026-05-08 01:29 35.98043 -100.41830 36989 ft 556 kts 88°
2026-05-08 01:29 35.98492 -100.32413 36991 ft 536 kts 83°
2026-05-08 01:30 35.98926 -100.23275 36989 ft 525 kts 86°
2026-05-08 01:30 35.99356 -100.14156 36998 ft 541 kts 89°
2026-05-08 01:31 35.99788 -100.04717 37002 ft 559 kts 89°
2026-05-08 01:31 36.00116 -99.95090 37003 ft 563 kts 91°
2026-05-08 01:32 36.00172 -99.85445 37007 ft 560 kts 90°
2026-05-08 01:32 36.00175 -99.80692 36998 ft 549 kts 85°
2026-05-08 01:32 36.00192 -99.75975 37000 ft 555 kts 92°
2026-05-08 01:33 36.00238 -99.66346 37015 ft 566 kts 92°
2026-05-08 01:33 36.00285 -99.56627 36994 ft 567 kts 92°
2026-05-08 01:34 36.00327 -99.46893 36999 ft 568 kts 92°
2026-05-08 01:34 36.00362 -99.37167 36998 ft 567 kts 92°
2026-05-08 01:35 36.00377 -99.27547 36939 ft 549 kts 86°
2026-05-08 01:35 36.00403 -99.17999 36979 ft 565 kts 92°
2026-05-08 01:36 36.00415 -99.08207 36950 ft 572 kts 92°
2026-05-08 01:36 36.00419 -98.98421 36954 ft 572 kts 92°
2026-05-08 01:37 36.00414 -98.88559 36956 ft 572 kts 92°
2026-05-08 01:37 36.00396 -98.78812 36957 ft 558 kts 86°
2026-05-08 01:38 36.00376 -98.69285 36955 ft 562 kts 93°
2026-05-08 01:38 36.00348 -98.59508 36953 ft 575 kts 93°
2026-05-08 01:39 36.00312 -98.49608 36956 ft 577 kts 93°
2026-05-08 01:39 36.00268 -98.39721 36952 ft 577 kts 93°
2026-05-08 01:40 36.00214 -98.29828 36960 ft 572 kts 89°
2026-05-08 01:40 36.00175 -98.24994 36949 ft 554 kts 85°
2026-05-08 01:40 36.00142 -98.20283 36931 ft 552 kts 91°
2026-05-08 01:41 36.00084 -98.10672 36954 ft 570 kts 94°
2026-05-08 01:41 35.99996 -98.00766 36951 ft 580 kts 95°
2026-05-08 01:42 35.99038 -97.90897 36947 ft 577 kts 104°
2026-05-08 01:42 35.97587 -97.81197 36952 ft 575 kts 105°
2026-05-08 01:42 35.96866 -97.76394 36955 ft 562 kts 96°
2026-05-08 01:43 35.96176 -97.71677 36936 ft 558 kts 99°
2026-05-08 01:43 35.94840 -97.62093 36949 ft 576 kts 104°
2026-05-08 01:44 35.93486 -97.52328 36949 ft 579 kts 104°
2026-05-08 01:44 35.92129 -97.42541 36959 ft 579 kts 104°
2026-05-08 01:45 35.90767 -97.32843 36967 ft 562 kts 96°
2026-05-08 01:45 35.89436 -97.23380 36994 ft 562 kts 97°
2026-05-08 01:46 35.88110 -97.14008 36987 ft 559 kts 103°
2026-05-08 01:46 35.86747 -97.04400 36993 ft 578 kts 105°
2026-05-08 01:47 35.85340 -96.94601 37050 ft 582 kts 105°
2026-05-08 01:47 35.83928 -96.84787 37051 ft 582 kts 105°
2026-05-08 01:48 35.82504 -96.74986 37057 ft 571 kts 97°
2026-05-08 01:48 35.81806 -96.70231 37045 ft 566 kts 100°
2026-05-08 01:48 35.80395 -96.60537 37056 ft 582 kts 105°
2026-05-08 01:49 35.78951 -96.50718 37049 ft 585 kts 105°
2026-05-08 01:49 35.77492 -96.40856 37048 ft 585 kts 105°
2026-05-08 01:50 35.76027 -96.31006 37050 ft 585 kts 105°
2026-05-08 01:50 35.74581 -96.21273 37026 ft 564 kts 108°
2026-05-08 01:51 35.73135 -96.11707 37041 ft 578 kts 106°
2026-05-08 01:51 35.71636 -96.01889 37014 ft 588 kts 106°
2026-05-08 01:52 35.70130 -95.91995 37015 ft 589 kts 106°
2026-05-08 01:52 35.68773 -95.82048 37019 ft 590 kts 102°
2026-05-08 01:53 35.67880 -95.72060 37024 ft 586 kts 97°
2026-05-08 01:53 35.67039 -95.62023 37024 ft 594 kts 100°
2026-05-08 01:54 35.66133 -95.51905 37024 ft 595 kts 101°
2026-05-08 01:54 35.65194 -95.41817 37024 ft 595 kts 101°
2026-05-08 01:55 35.64240 -95.31725 37018 ft 595 kts 101°
2026-05-08 01:55 35.63275 -95.21657 37017 ft 590 kts 96°
2026-05-08 01:56 35.62313 -95.11594 37010 ft 596 kts 101°
2026-05-08 01:56 35.61332 -95.01467 37008 ft 597 kts 101°
2026-05-08 01:57 35.60343 -94.91349 37005 ft 596 kts 101°
2026-05-08 01:57 35.59347 -94.81256 37000 ft 596 kts 101°
2026-05-08 01:58 35.58348 -94.71161 37017 ft 585 kts 106°
2026-05-08 01:58 35.57887 -94.66358 37009 ft 561 kts 108°
2026-05-08 01:58 35.57428 -94.61641 36970 ft 543 kts 104°
2026-05-08 01:59 35.56464 -94.52345 37003 ft 558 kts 102°
2026-05-08 01:59 35.55461 -94.42730 37009 ft 577 kts 101°
2026-05-08 02:00 35.54439 -94.32838 37009 ft 591 kts 101°
2026-05-08 02:00 35.53400 -94.22768 37015 ft 595 kts 104°
2026-05-08 02:01 35.52896 -94.17808 36998 ft 580 kts 102°
2026-05-08 02:01 35.52379 -94.12860 37023 ft 588 kts 102°
2026-05-08 02:01 35.51310 -94.02798 37018 ft 599 kts 102°
2026-05-08 02:02 35.50229 -93.92633 37030 ft 601 kts 102°
2026-05-08 02:02 35.49144 -93.82474 37034 ft 601 kts 102°
2026-05-08 02:03 35.48051 -93.72333 37033 ft 600 kts 99°
2026-05-08 02:03 35.46941 -93.62194 37032 ft 602 kts 99°
2026-05-08 02:04 35.46022 -93.53708 37034 ft 603 kts 102°
2026-05-08 02:04 35.44898 -93.43518 37032 ft 603 kts 102°
2026-05-08 02:05 35.43765 -93.33353 37030 ft 603 kts 102°
2026-05-08 02:05 35.42624 -93.23184 37013 ft 601 kts 102°
2026-05-08 02:06 35.41487 -93.13114 37016 ft 598 kts 102°
2026-05-08 02:06 35.40325 -93.02942 37018 ft 604 kts 102°
2026-05-08 02:07 35.39156 -92.92755 37009 ft 604 kts 102°
2026-05-08 02:07 35.37982 -92.82583 37006 ft 604 kts 102°
2026-05-08 02:08 35.36795 -92.72388 37006 ft 604 kts 102°
2026-05-08 02:08 35.36210 -92.67338 36999 ft 592 kts 103°
2026-05-08 02:08 35.35628 -92.62394 36993 ft 590 kts 100°
2026-05-08 02:09 35.34430 -92.52294 37013 ft 604 kts 102°
2026-05-08 02:09 35.33217 -92.42126 37004 ft 604 kts 102°
2026-05-08 02:10 35.32027 -92.32201 37018 ft 606 kts 102°
2026-05-08 02:10 35.30794 -92.21991 37016 ft 606 kts 102°
2026-05-08 02:11 35.29557 -92.11827 37005 ft 604 kts 102°
2026-05-08 02:11 35.28315 -92.01674 36996 ft 605 kts 103°
2026-05-08 02:12 35.27056 -91.91483 36995 ft 605 kts 102°
2026-05-08 02:12 35.25792 -91.81314 37003 ft 606 kts 103°
2026-05-08 02:13 35.24519 -91.71145 37001 ft 606 kts 103°
2026-05-08 02:13 35.23239 -91.61052 37001 ft 601 kts 99°
2026-05-08 02:14 35.21963 -91.50911 37020 ft 604 kts 103°
2026-05-08 02:14 35.20669 -91.40786 37019 ft 603 kts 103°
2026-05-08 02:15 35.19358 -91.30626 37051 ft 608 kts 103°
2026-05-08 02:15 35.18047 -91.20469 37051 ft 605 kts 103°
2026-05-08 02:16 35.16735 -91.10361 37064 ft 589 kts 108°
2026-05-08 02:16 35.16111 -91.05486 37020 ft 578 kts 104°
2026-05-08 02:16 35.15464 -91.00609 37048 ft 586 kts 103°
2026-05-08 02:17 35.14800 -90.95660 37041 ft 597 kts 103°
2026-05-08 02:17 35.14133 -90.90681 37031 ft 602 kts 103°
2026-05-08 02:17 35.12778 -90.80525 37027 ft 603 kts 103°
2026-05-08 02:18 35.11428 -90.70419 37028 ft 604 kts 103°
2026-05-08 02:18 35.10761 -90.65406 37041 ft 592 kts 109°
2026-05-08 02:18 35.10123 -90.60523 37022 ft 573 kts 110°
2026-05-08 02:19 35.08820 -90.50964 37030 ft 580 kts 104°
2026-05-08 02:19 35.07461 -90.41173 37027 ft 599 kts 104°
2026-05-08 02:20 35.06088 -90.31201 37023 ft 603 kts 104°
2026-05-08 02:20 35.04705 -90.21156 37025 ft 604 kts 104°
2026-05-08 02:21 35.04009 -90.16086 37043 ft 593 kts 109°
2026-05-08 02:21 35.03354 -90.11230 37038 ft 568 kts 109°
2026-05-08 02:21 35.02737 -90.06622 37009 ft 539 kts 110°
2026-05-08 02:21 35.02115 -90.02165 36993 ft 532 kts 104°
2026-05-08 02:22 35.00815 -89.93147 37034 ft 549 kts 104°
2026-05-08 02:22 34.99492 -89.83840 37033 ft 568 kts 104°
2026-05-08 02:23 34.98132 -89.74201 37035 ft 587 kts 104°
2026-05-08 02:23 34.96735 -89.64276 37023 ft 595 kts 106°
2026-05-08 02:24 34.95315 -89.54264 37028 ft 603 kts 104°
2026-05-08 02:24 34.93881 -89.44213 37021 ft 604 kts 104°
2026-05-08 02:25 34.92433 -89.34152 37021 ft 603 kts 104°
2026-05-08 02:25 34.90992 -89.24200 37021 ft 604 kts 104°
2026-05-08 02:26 34.89520 -89.14153 37036 ft 595 kts 94°
2026-05-08 02:26 34.88790 -89.09303 37038 ft 574 kts 89°
2026-05-08 02:26 34.88079 -89.04613 37007 ft 552 kts 90°
2026-05-08 02:27 34.86977 -88.96993 37015 ft 554 kts 104°